CW8045 Weather Reports


Display with metric or nautical units.
time (UTC)temp
F
wind
direction
speed
MPH
gust
MPH
rain 1hr
in
rain 24hr
in
rain mn
in
humidity
%
barometer
mb
20260506123603 57 1 7.0 13.0 0.00 0.00 0.00 67 1009.3
20260506122702 57 354 5.0 14.0 0.00 0.00 0.00 68 1009.2
20260506121802 57 324 6.0 14.0 0.00 0.00 0.00 69 1009.3
20260506120903 58 329 5.0 13.0 0.00 0.00 0.00 69 1009.2
20260506120024 58 352 6.0 13.0 0.00 0.00 0.00 70 1009.3
20260506115402 57 1 5.0 11.0 0.00 0.00 0.00 71 1009.2
20260506114502 56 2 6.0 12.0 0.00 0.00 0.00 69 1009.3
20260506113602 56 342 5.0 11.0 0.00 0.00 0.00 71 1009.3
20260506112702 56 337 5.0 12.0 0.00 0.00 0.00 74 1009.3
20260506111823 56 304 7.0 12.0 0.00 0.00 0.00 75 1009.2
20260506110902 56 309 6.0 12.0 0.00 0.00 0.00 77 1009.2
20260506110002 57 317 6.0 12.0 0.00 0.00 0.00 76 1009.4
20260506105403 57 324 5.0 11.0 0.00 0.00 0.00 72 1009.5
20260506104502 57 352 5.0 13.0 0.00 0.00 0.00 73 1009.3
20260506103602 56 354 5.0 12.0 0.00 0.00 0.00 74 1009.4
20260506102702 55 311 4.0 9.0 0.00 0.00 0.00 78 1009.3
20260506101802 55 323 4.0 10.0 0.00 0.00 0.00 79 1009.4
20260506100903 54 320 5.0 12.0 0.00 0.00 0.00 81 1009.3
20260506100002 54 315 6.0 11.0 0.00 0.00 0.00 81 1009.2
20260506095423 54 312 4.0 11.0 0.00 0.00 0.00 82 1009.2
20260506094502 53 300 6.0 11.0 0.00 0.00 0.00 82 1009.2
20260506093623 53 308 6.0 11.0 0.00 0.00 0.00 82 1009.1
20260506092703 53 303 4.0 11.0 0.00 0.00 0.00 82 1009.3
20260506091802 53 301 6.0 12.0 0.00 0.00 0.00 83 1009.2
20260506090902 53 319 5.0 11.0 0.00 0.00 0.00 84 1009.1
20260506090023 53 311 5.0 11.0 0.00 0.00 0.00 84 1009.1
20260506085402 53 319 4.0 11.0 0.00 0.00 0.00 84 1009.1
20260506084502 52 329 5.0 11.0 0.00 0.00 0.00 84 1009.0
20260506083602 53 330 5.0 10.0 0.00 0.00 0.00 82 1009.1
20260506082702 53 334 5.0 11.0 0.00 0.00 0.00 81 1009.0
20260506081802 53 350 6.0 12.0 0.00 0.00 0.00 81 1008.8
20260506080902 53 355 6.0 12.0 0.00 0.00 0.00 81 1008.8
20260506072702 53 9 6.0 12.0 0.00 0.00 0.00 81 1008.6
20260506071802 53 4 7.0 14.0 0.00 0.00 0.00 80 1008.6
20260506070902 53 2 6.0 12.0 0.00 0.00 0.00 81 1008.5
20260506061823 50 9 6.0 12.0 0.00 0.00 0.00 85 1008.6
20260506060902 50 357 6.0 11.0 0.00 0.00 0.00 85 1008.8
20260506050902 49 3 3.0 9.0 0.00 0.00 0.00 86 1008.6
20260506044502 49 2 6.0 13.0 0.00 0.00 0.00 86 1008.6
20260506043602 49 6 6.0 12.0 0.00 0.00 0.00 86 1008.5
20260506042702 49 2 5.0 11.0 0.00 0.00 0.00 86 1008.5
20260506041802 49 3 5.0 12.0 0.00 0.00 0.00 87 1008.4
20260506040903 49 352 5.0 14.0 0.00 0.00 0.00 87 1008.4
20260506040002 49 351 5.0 14.0 0.00 0.00 0.00 88 1008.4
20260506035403 49 356 4.0 11.0 0.00 0.00 0.00 88 1008.4
20260506034523 48 358 5.0 12.0 0.00 0.00 0.00 88 1008.5
20260506033603 48 346 3.0 10.0 0.00 0.00 0.00 89 1008.4
20260506032703 48 352 4.0 10.0 0.00 0.00 0.00 89 1008.5
20260506031823 48 351 3.0 10.0 0.00 0.00 0.00 89 1008.5
20260506030902 48 350 4.0 10.0 0.00 0.00 0.00 89 1008.4
20260506030002 48 350 4.0 11.0 0.00 0.00 0.00 89 1008.4
20260506025402 48 358 4.0 11.0 0.00 0.00 0.00 88 1008.4
20260506024502 48 358 5.0 12.0 0.00 0.00 0.00 88 1008.4
20260506023602 48 355 5.0 13.0 0.00 0.00 0.00 88 1008.4
20260506022702 48 358 6.0 13.0 0.00 0.00 0.00 89 1008.4
20260506021802 48 359 4.0 11.0 0.00 0.00 0.00 89 1008.3
20260506020902 48 5 4.0 10.0 0.00 0.00 0.00 89 1008.3
20260506020023 48 10 5.0 10.0 0.00 0.00 0.00 89 1008.3
20260506015403 48 6 5.0 10.0 0.00 0.00 0.00 89 1008.3
20260506014502 48 6 6.0 13.0 0.00 0.00 0.00 89 1008.5
20260506013623 49 3 4.0 13.0 0.00 0.00 0.00 89 1008.3
20260506012702 49 357 5.0 13.0 0.00 0.00 0.00 89 1008.3
20260506011802 49 4 5.0 11.0 0.00 0.00 0.00 89 1008.5
20260506010903 49 6 6.0 11.0 0.00 0.00 0.00 89 1008.4
20260506010002 49 7 7.0 12.0 0.00 0.00 0.00 89 1008.4
20260506005423 49 8 7.0 12.0 0.00 0.00 0.00 89 1008.4
20260506004503 49 7 8.0 14.0 0.00 0.00 0.00 89 1008.5
20260506003602 49 9 7.0 12.0 0.00 0.00 0.00 88 1008.5
20260506002702 49 7 8.0 15.0 0.00 0.00 0.00 88 1008.6
20260506001802 49 8 8.0 13.0 0.00 0.00 0.00 88 1008.6
20260506000902 49 9 8.0 15.0 0.00 0.00 0.00 88 1008.6
20260506000002 49 10 8.0 15.0 0.00 0.00 0.00 88 1008.6
20260505235402 49 8 8.0 15.0 0.00 0.00 0.00 88 1008.6
20260505234523 49 7 9.0 16.0 0.00 0.00 0.00 87 1008.6
20260505233602 49 7 8.0 18.0 0.00 0.00 0.00 87 1008.6
20260505232703 49 8 8.0 14.0 0.00 0.00 0.00 87 1008.6
20260505231823 49 9 8.0 14.0 0.00 0.00 0.00 87 1008.7
20260505230902 49 6 8.0 14.0 0.00 0.00 0.00 87 1008.7
20260505230002 49 4 8.0 14.0 0.00 0.00 0.00 86 1008.8
20260505225402 49 7 7.0 13.0 0.00 0.00 0.00 86 1008.8
20260505224502 50 5 8.0 13.0 0.00 0.00 0.00 86 1008.8
20260505223602 50 8 8.0 14.0 0.00 0.00 0.00 85 1008.8
20260505222723 50 9 8.0 14.0 0.00 0.00 0.00 85 1008.7
20260505221802 50 7 8.0 14.0 0.00 0.00 0.00 85 1008.7
20260505220902 50 11 8.0 14.0 0.00 0.00 0.00 84 1008.8
20260505220003 50 11 7.0 13.0 0.00 0.00 0.00 84 1008.8
20260505215402 50 7 7.0 13.0 0.00 0.00 0.00 84 1008.8
20260505214502 50 5 8.0 13.0 0.00 0.00 0.00 83 1008.8
20260505213624 50 12 7.0 12.0 0.00 0.00 0.00 82 1008.9
20260505212702 50 10 8.0 15.0 0.00 0.00 0.00 82 1008.9
20260505211802 51 7 9.0 15.0 0.00 0.00 0.00 81 1008.9
20260505210902 51 9 9.0 15.0 0.00 0.00 0.00 81 1008.8
20260505210002 51 8 8.0 15.0 0.00 0.00 0.00 81 1008.8
20260505205402 51 11 8.0 16.0 0.00 0.00 0.00 80 1008.8
20260505204502 51 8 9.0 16.0 0.00 0.00 0.00 80 1008.9
20260505203602 51 11 9.0 19.0 0.00 0.00 0.00 80 1008.8
20260505202702 51 9 10.0 21.0 0.00 0.00 0.00 80 1008.7
20260505201802 52 8 10.0 16.0 0.00 0.00 0.00 80 1008.7
20260505200923 52 7 11.0 18.0 0.00 0.00 0.00 80 1008.7
20260505200003 52 6 10.0 18.0 0.00 0.00 0.00 81 1008.7
20260505195402 52 9 10.0 19.0 0.00 0.00 0.00 81 1008.6
20260505194523 52 7 9.0 18.0 0.00 0.00 0.00 81 1008.4
20260505193602 52 8 9.0 15.0 0.00 0.00 0.00 81 1008.5
20260505192702 52 10 10.0 18.0 0.00 0.00 0.00 80 1008.4
20260505191802 52 10 8.0 16.0 0.00 0.00 0.00 80 1008.3
20260505190902 53 9 9.0 18.0 0.00 0.00 0.00 80 1008.1
20260505190023 53 5 8.0 14.0 0.00 0.00 0.00 80 1008.1
20260505185403 53 7 8.0 14.0 0.00 0.00 0.00 80 1008.1
20260505184502 54 8 9.0 16.0 0.00 0.00 0.00 80 1008.2
20260505183602 54 4 9.0 15.0 0.00 0.00 0.00 80 1008.1
20260505182723 54 4 8.0 14.0 0.00 0.00 0.00 80 1008.0
20260505181823 54 4 9.0 16.0 0.00 0.00 0.00 79 1008.0
20260505180902 54 7 10.0 15.0 0.00 0.00 0.00 79 1008.0
20260505180002 55 12 9.0 20.0 0.00 0.00 0.00 79 1007.9
20260505175403 55 9 10.0 20.0 0.00 0.00 0.00 78 1007.9
20260505174503 55 4 11.0 21.0 0.00 0.00 0.00 78 1007.8
20260505173602 56 10 9.0 19.0 0.00 0.00 0.00 79 1007.9
20260505172702 56 9 10.0 18.0 0.00 0.00 0.00 78 1007.9
20260505171802 56 8 11.0 20.0 0.00 0.00 0.00 78 1007.8
20260505170902 56 7 11.0 21.0 0.00 0.00 0.00 79 1007.8
20260505170002 57 9 10.0 19.0 0.00 0.00 0.00 80 1007.9
20260505165423 57 11 10.0 19.0 0.00 0.00 0.00 79 1007.8
20260505164502 57 6 10.0 18.0 0.00 0.00 0.00 79 1007.9
20260505163623 58 8 8.0 14.0 0.00 0.00 0.00 80 1007.9
20260505162703 58 8 8.0 19.0 0.00 0.00 0.00 79 1007.9
20260505161802 58 8 9.0 15.0 0.00 0.00 0.00 79 1007.8
20260505160902 58 355 8.0 19.0 0.00 0.00 0.00 79 1007.7
20260505152704 60 2 6.0 15.0 0.00 0.00 0.00 77 1007.9
20260505151802 60 359 7.0 13.0 0.00 0.00 0.00 77 1008.0
20260505150902 60 5 8.0 15.0 0.00 0.00 0.00 77 1007.9
20260505124503 61 8 6.0 12.0 0.00 0.00 0.00 73 1008.8